Wind_Speed
16 16 17 18 19 20 21 22 21 20 20 18 18 18 17 16 15 15 16 17 18 18 17 16 15 15 15 15 15 14 15 15 15 15 14 13 13 11 10 9 9 8 7 6 6 6 6 6 7 8 8 9 9 10 11 11 11 11 12 11 10 7 5 5 5 6 6 8 10 12 12 12 13 14 15 16 17 17 18 19 20 20 21 22 23
17 17 19 19 20 21 22 22 22 21 21 19 19 19 18 17 17 17 17 17 17 17 15 15 15 15 14 14 14 15 15 16 16 15 13 12 11 9 9 9 9 8 7 6 6 6 7 7 8 8 8 9 9 10 11 10 10 10 10 10 9 8 6 6 7 8 8 9 11 12 14 14 14 15 16 17 18 19 18 19 20 21 21 22 23
18 18 19 20 21 23 24 23 23 24 23 22 20 20 20 19 19 19 19 18 18 17 16 16 17 17 16 15 15 16 17 16 15 14 12 11 10 9 9 9 8 8 8 8 8 8 8 8 8 8 8 9 10 10 9 9 9 9 9 9 9 8 8 7 8 9 10 11 12 12 13 13 14 15 16 18 19 19 19 20 21 22 23 23 24
19 19 20 21 22 24 25 24 25 26 25 24 22 21 21 20 20 20 20 19 19 18 18 18 18 18 18 17 17 17 17 16 14 13 12 11 10 10 9 9 9 8 8 9 9 8 8 7 7 8 9 9 10 9 9 9 8 8 9 10 10 10 9 9 9 9 10 11 12 13 13 13 13 13 15 17 19 20 21 22 23 24 26 26 27
19 19 20 21 22 24 25 25 25 26 25 25 24 22 21 20 20 21 21 21 21 20 19 19 19 19 18 18 18 18 16 15 14 12 11 11 10 10 9 9 9 9 8 8 8 7 7 7 7 8 8 9 9 9 9 9 9 9 10 11 12 12 12 12 13 12 12 12 13 13 14 14 14 14 16 17 20 22 23 24 24 26 28 29 29
19 20 21 21 23 24 24 24 24 25 25 25 24 22 20 19 20 21 22 23 23 21 20 19 19 18 18 17 16 15 14 13 13 12 11 11 11 10 9 8 8 8 8 7 7 7 6 6 6 7 8 8 9 9 9 9 10 11 12 13 13 13 13 14 15 15 15 16 15 15 16 16 17 18 19 19 21 23 24 25 25 27 30 31 32
22 23 24 23 23 23 23 23 24 24 24 24 23 21 19 19 20 21 24 25 24 22 22 21 20 18 18 17 15 13 12 13 13 13 12 12 12 11 9 8 8 8 8 8 7 7 6 6 6 7 8 9 10 10 11 11 12 13 14 14 14 14 15 15 16 16 16 17 18 18 18 19 19 20 22 23 23 23 24 26 27 29 31 33 34
23 24 25 25 23 23 22 23 23 24 24 23 22 20 19 19 20 22 24 25 24 23 22 19 18 18 18 17 16 15 14 14 13 13 12 12 12 10 9 8 8 9 9 8 7 7 6 6 7 8 9 11 11 12 13 14 15 15 15 15 15 15 16 16 17 17 18 18 18 19 20 20 21 22 24 25 26 25 24 25 27 29 32 35 35
24 25 25 25 23 22 22 23 23 24 23 22 21 20 19 19 19 22 24 23 21 20 19 18 18 19 19 18 17 16 15 14 13 12 11 11 10 9 8 8 9 9 8 8 7 7 8 9 10 11 12 13 14 14 15 16 17 17 16 16 16 17 17 17 18 18 19 19 20 20 21 22 23 24 25 26 27 27 26 26 26 27 27 31 34
25 26 25 24 23 23 23 23 24 23 23 22 21 19 18 18 19 20 21 18 17 18 19 19 20 20 19 18 16 14 14 13 12 11 10 9 8 7 7 8 9 8 8 7 8 9 10 11 12 13 14 15 16 17 17 18 18 17 17 17 18 18 18 19 19 20 20 20 21 22 23 24 25 26 27 27 28 28 28 28 27 27 25 26 30
27 27 26 24 24 24 24 24 24 23 22 22 21 20 19 18 18 19 19 17 16 17 19 20 18 17 17 16 15 13 12 12 11 10 8 8 8 7 8 9 8 8 7 8 9 10 12 13 14 15 16 17 17 18 18 18 18 18 18 18 19 19 20 20 21 21 21 22 22 23 24 26 27 27 27 28 28 29 30 30 29 29 27 26 27
28 28 28 27 26 26 26 26 25 23 22 22 21 21 20 18 18 18 18 17 16 17 19 20 16 14 14 14 14 12 11 11 10 9 8 8 8 8 9 9 8 7 8 9 11 13 14 15 16 16 17 18 18 18 18 18 18 18 18 18 19 20 20 21 22 22 23 23 24 25 26 26 27 28 28 29 30 31 32 32 32 30 28 27 28
29 30 30 28 28 28 27 26 25 23 22 22 22 21 20 19 18 17 16 16 16 16 18 18 15 13 13 13 12 12 11 11 10 9 8 8 8 9 9 9 9 9 10 12 14 15 16 16 16 17 17 18 18 19 19 19 19 18 18 19 19 20 21 22 22 23 24 24 25 26 26 26 27 28 29 30 31 32 32 31 31 30 29 27 27
30 31 30 29 28 27 26 25 24 23 22 23 22 21 20 19 17 15 15 15 15 15 15 14 14 14 14 13 12 12 12 11 10 9 9 9 9 9 10 10 11 12 13 15 16 16 16 16 17 17 18 19 19 19 19 19 19 18 18 19 19 20 21 22 23 24 24 25 25 25 25 26 27 28 29 30 30 31 31 31 29 28 28 27 26
30 31 30 29 28 26 25 24 23 23 22 22 21 20 20 18 16 15 16 16 15 14 14 14 14 15 14 14 13 13 12 12 11 11 10 10 10 10 11 12 13 14 14 16 16 16 17 17 18 19 19 20 20 19 19 19 18 18 18 19 20 21 22 23 23 24 24 24 24 25 26 26 27 27 28 29 29 30 30 31 31 30 28 26 25
30 30 30 29 27 26 26 24 23 23 22 20 20 20 19 18 17 17 17 17 16 15 15 14 14 14 14 14 13 12 12 12 12 11 10 10 11 12 13 14 14 14 15 16 17 17 18 19 19 20 20 20 19 18 18 18 18 18 18 19 20 21 22 23 23 23 23 23 24 25 25 26 26 27 27 28 29 30 30 31 32 33 32 30 26
29 29 29 27 26 26 26 25 23 22 20 19 19 19 19 19 19 18 18 18 17 16 15 14 14 14 14 14 13 12 13 12 12 11 10 11 12 13 14 14 14 15 16 17 18 19 20 20 20 20 20 19 18 17 17 17 18 18 19 20 21 22 22 22 22 22 22 23 24 24 25 25 25 26 27 28 29 30 31 32 32 33 34 34 31
28 28 27 25 26 26 26 24 22 21 20 19 19 19 20 21 20 19 18 18 18 17 16 14 14 14 15 15 14 14 14 13 11 11 11 12 13 13 14 14 15 16 18 18 19 20 20 20 19 18 18 18 17 17 17 17 17 18 19 20 21 21 22 22 22 22 22 23 23 24 24 24 25 26 27 28 29 30 31 32 33 33 33 34 34
29 28 27 25 26 26 25 24 22 21 20 20 19 20 22 22 21 20 20 19 19 18 16 15 15 15 15 15 15 14 13 12 11 11 12 12 13 13 14 15 16 17 18 19 20 20 19 18 17 17 17 17 16 16 16 17 17 18 19 20 20 21 21 21 21 21 22 22 22 23 24 25 26 27 28 28 29 30 31 32 32 33 33 33 34
30 28 27 25 25 25 24 23 22 21 21 21 20 21 23 23 22 22 21 21 20 18 17 16 15 15 15 14 14 13 12 11 11 11 11 12 12 13 14 15 16 17 19 19 19 18 17 16 16 16 16 16 15 16 16 17 17 18 18 19 20 20 20 21 21 21 21 21 22 23 24 25 26 27 28 29 29 30 30 31 32 32 33 33 34
29 28 27 26 25 26 26 24 23 22 22 22 22 22 23 23 22 22 21 21 20 18 16 16 16 15 14 13 12 11 11 10 10 10 10 11 12 13 14 15 16 17 18 18 17 17 16 16 15 15 15 15 15 15 16 16 17 17 18 18 19 19 20 20 20 19 20 21 22 23 24 25 26 27 27 28 28 29 30 30 31 32 33 35 35
27 27 27 25 24 26 26 24 24 23 22 23 23 23 24 24 23 22 21 20 19 17 16 16 15 14 13 12 11 10 10 9 8 8 9 10 12 13 14 15 15 16 17 17 17 16 15 15 14 14 14 14 15 15 15 16 16 16 17 18 18 19 19 18 18 18 20 21 22 24 25 25 26 26 27 27 28 28 29 30 32 33 34 35 36
26 27 26 25 24 25 25 24 23 23 23 24 24 24 24 24 23 22 21 20 19 18 18 17 16 14 12 10 10 9 9 8 7 6 6 8 10 12 14 15 15 16 16 16 16 15 15 14 13 13 13 13 14 14 14 14 14 15 17 17 17 17 17 16 17 19 20 22 23 24 25 25 26 26 26 27 28 28 30 31 32 33 34 35 36
26 27 27 26 26 26 25 24 23 22 23 24 25 24 24 24 24 23 22 21 20 20 19 17 15 14 12 12 11 11 10 9 8 7 7 9 11 13 14 15 16 16 15 15 15 15 14 13 12 12 12 13 13 12 12 13 14 16 17 16 15 15 15 16 17 19 20 22 23 24 25 25 26 26 27 27 28 29 30 31 32 33 34 35 36
25 27 28 28 27 26 24 23 22 22 23 25 25 25 25 25 24 23 23 22 21 21 19 18 16 15 15 15 14 14 13 12 10 9 9 11 13 14 15 16 16 15 14 14 14 14 13 12 11 11 12 11 11 11 12 13 14 15 15 14 13 14 15 16 18 19 20 21 22 23 24 25 25 26 27 28 29 30 30 31 32 32 33 35 36
25 27 28 28 27 25 24 23 22 22 24 25 26 26 26 26 25 24 24 23 22 21 20 19 18 18 17 17 17 17 16 15 13 12 11 13 14 16 16 16 15 14 13 13 13 12 11 11 10 10 10 10 10 11 13 13 13 13 13 12 13 14 15 16 18 19 20 21 22 23 23 24 25 26 27 28 29 30 31 31 31 33 34 36 37
25 26 27 27 26 25 24 23 22 23 24 26 27 27 27 26 25 25 24 23 22 22 21 20 19 19 19 19 20 19 18 17 15 13 13 14 15 15 15 15 14 13 13 12 11 10 10 10 9 9 9 10 11 12 12 11 11 12 12 12 13 14 15 16 18 19 21 21 22 22 23 23 25 26 27 28 29 29 30 31 32 34 35 37 38
26 26 26 27 25 24 24 23 23 24 25 27 28 28 27 27 26 25 25 24 24 23 22 21 19 19 19 20 19 18 17 16 14 13 13 14 14 15 14 14 13 13 11 10 10 9 9 8 8 8 10 11 11 10 10 10 11 11 12 12 13 14 15 16 17 19 20 21 21 22 23 24 25 27 28 28 29 29 30 32 34 35 37 38 40
26 25 25 25 25 24 24 23 23 24 25 27 29 29 29 28 27 26 25 25 24 23 22 21 20 19 19 19 18 17 16 14 13 13 14 14 14 14 14 13 12 11 10 9 9 9 8 8 8 9 10 10 9 9 9 10 10 11 12 13 14 14 15 16 17 18 19 20 21 22 23 25 26 27 28 28 29 30 32 33 35 36 38 39 41
25 23 23 23 24 24 24 24 23 24 25 28 29 30 30 29 27 27 26 26 25 24 23 22 21 20 20 19 18 16 15 14 13 14 14 14 14 14 13 11 11 10 9 9 9 9 8 9 9 10 9 8 8 8 9 9 10 11 12 14 14 15 16 16 17 17 17 19 20 22 23 25 26 26 26 27 28 30 32 34 35 37 38 40 41
24 23 23 24 24 24 24 24 24 24 25 27 30 31 31 30 29 28 28 28 27 26 25 24 23 22 21 20 18 17 16 16 15 15 14 14 14 13 12 11 10 10 9 9 9 9 9 9 9 9 8 8 8 8 8 9 10 11 12 13 14 15 15 16 17 17 17 18 20 21 23 24 25 25 25 26 28 30 31 32 33 35 36 38 39
23 22 22 23 23 23 24 24 24 25 26 27 30 32 32 32 31 29 29 30 29 28 27 26 24 23 23 21 19 18 19 19 17 16 15 15 14 12 11 10 10 10 9 9 9 9 10 9 8 8 8 8 8 8 8 9 10 11 12 13 14 14 15 15 16 16 17 19 20 21 22 23 23 24 24 26 27 28 29 30 31 32 34 35 36
21 20 19 19 21 22 23 24 24 24 25 27 30 32 33 34 33 32 31 31 30 31 29 26 24 25 24 22 20 20 21 19 17 16 15 14 13 12 10 10 10 10 9 10 10 10 9 9 8 8 7 7 7 8 8 9 10 11 12 13 13 14 14 15 16 17 18 19 21 22 22 22 23 23 25 26 26 27 27 28 29 31 32 33 34
19 18 17 19 21 21 22 23 24 25 25 27 30 32 34 35 35 34 32 31 32 32 29 25 25 26 25 23 23 23 21 19 17 17 15 14 13 11 10 11 11 11 10 10 10 9 9 9 8 7 7 6 7 8 8 9 10 11 12 12 13 13 14 14 16 17 18 20 20 21 22 22 23 24 25 25 25 26 26 27 28 30 31 33 34
18 17 18 20 21 21 20 20 23 25 26 28 29 31 34 36 36 35 33 33 33 31 28 26 26 25 25 25 25 24 22 19 18 16 14 13 12 11 11 11 11 11 11 11 10 10 10 9 8 7 6 6 7 8 9 9 9 10 11 11 12 12 13 14 15 17 18 19 20 20 21 22 23 24 25 26 26 26 26 27 29 30 31 32 34
16 15 16 17 18 18 18 17 20 25 27 28 29 30 32 35 36 36 35 34 32 28 26 25 24 23 24 24 22 21 20 17 16 15 13 13 12 11 12 12 12 12 11 11 11 11 10 8 7 6 6 6 7 8 9 9 9 9 10 11 11 12 13 14 16 17 18 19 19 20 21 22 23 25 25 26 26 26 27 28 29 30 31 32 33
13 12 12 13 14 16 17 17 19 22 24 25 26 27 29 31 33 34 34 32 30 26 24 23 21 21 24 23 20 17 17 15 14 14 13 13 13 12 13 14 13 12 11 11 12 11 9 8 6 6 6 7 8 8 9 8 8 8 9 10 11 12 13 14 15 16 17 18 18 19 20 22 24 24 25 25 25 26 27 28 29 30 31 32 33
12 8 7 8 11 14 17 18 19 20 21 22 22 22 24 27 29 30 30 29 27 24 22 22 21 21 22 23 20 16 16 15 14 13 13 13 13 14 14 15 14 13 13 13 12 11 9 7 6 6 7 7 8 9 8 8 8 8 8 9 10 11 12 14 15 16 16 17 18 19 21 22 23 24 24 25 25 26 27 29 30 31 32 32 34
11 8 6 6 7 9 13 16 19 21 22 21 18 18 21 25 27 28 26 24 23 22 21 21 20 19 20 21 20 17 17 16 15 14 14 14 14 15 16 15 14 15 15 14 13 11 9 7 7 6 7 8 8 8 8 7 8 8 8 9 10 11 12 13 14 15 16 16 18 19 21 22 23 23 24 24 25 26 28 29 31 32 32 33 35
10 10 9 8 8 9 10 13 16 20 22 20 18 20 25 27 26 27 25 21 20 20 21 21 19 17 18 19 20 18 18 17 15 15 16 16 15 16 16 15 15 16 16 14 12 10 9 7 7 7 7 8 8 7 7 7 7 7 8 8 9 10 12 13 14 14 15 16 18 19 21 21 22 22 23 24 25 26 28 30 31 32 33 34 36
11 11 11 11 11 11 11 12 13 16 20 20 18 23 30 30 26 25 23 20 20 21 21 20 18 17 17 18 19 19 18 17 16 16 16 16 16 16 17 16 16 17 16 14 12 10 9 7 7 7 8 8 7 6 6 6 6 7 7 8 9 10 12 12 13 13 14 16 17 19 20 20 21 22 23 24 25 26 28 30 31 32 34 35 36
12 12 13 13 13 13 14 15 14 16 19 20 22 28 32 28 23 22 21 20 19 20 21 20 20 18 16 16 18 19 18 17 17 16 16 16 16 17 18 18 18 17 16 14 12 10 9 8 8 8 8 7 6 6 5 5 5 6 7 7 9 10 11 11 11 12 14 15 17 18 19 19 20 21 22 23 25 26 28 29 30 32 33 34 34
13 13 13 14 15 15 16 17 18 18 19 20 23 27 29 27 24 21 20 18 18 20 21 21 21 18 15 15 17 18 18 17 16 16 16 16 17 18 20 20 19 18 16 14 12 10 9 8 8 8 8 6 6 5 4 4 4 5 5 6 8 9 9 10 10 12 13 15 16 17 18 19 20 21 22 23 24 26 27 28 30 31 32 33 34
14 13 12 12 14 16 18 19 20 21 21 21 22 24 25 25 25 23 22 20 20 22 23 23 21 18 16 16 16 17 17 17 16 16 17 17 18 20 21 20 20 18 16 14 12 10 9 9 9 8 7 6 5 5 3 3 3 3 4 6 7 8 8 8 10 11 13 14 15 16 17 19 20 21 22 23 24 26 27 28 29 31 32 33 34
12 12 12 12 13 15 18 20 22 23 23 23 24 24 24 24 24 23 22 21 21 23 24 24 22 19 17 17 15 16 18 18 17 17 17 17 19 21 21 21 20 18 16 14 12 10 10 10 9 8 7 6 6 4 2 2 2 2 3 6 6 6 6 7 9 11 12 14 15 16 17 18 19 21 22 23 24 25 27 28 29 30 31 32 34
14 14 14 13 13 14 15 18 21 23 24 24 24 24 25 26 24 22 21 20 23 25 24 22 19 17 17 16 14 15 18 19 18 18 18 18 21 22 22 21 20 18 16 13 12 11 11 10 9 9 8 7 6 4 2 2 1 1 4 5 5 5 5 7 8 10 11 13 14 15 16 17 18 20 21 22 23 24 26 27 28 30 31 33 34
16 15 14 14 14 14 14 14 17 20 23 24 24 25 28 27 24 22 22 23 25 25 22 20 18 16 15 15 15 17 20 20 19 19 20 22 24 24 23 21 19 17 15 13 12 12 12 10 10 9 8 7 6 4 3 3 2 2 4 5 4 4 5 6 8 9 10 12 14 15 16 17 18 19 21 22 23 24 25 26 27 29 30 32 34
16 16 15 15 16 15 14 14 14 17 20 22 24 26 29 29 26 25 25 25 26 24 21 19 18 17 16 16 18 20 21 19 19 20 22 23 24 24 23 21 19 16 14 13 13 13 12 11 10 10 9 8 6 5 5 4 3 4 5 5 4 4 5 6 8 9 10 11 12 14 15 17 18 20 21 22 23 23 24 25 26 28 29 31 32
18 17 17 16 16 17 16 16 15 16 19 21 23 25 28 29 29 28 26 26 25 24 23 21 20 18 18 18 20 21 21 19 19 21 23 23 24 23 22 21 19 17 15 15 15 14 13 12 11 11 10 9 7 7 6 6 5 4 4 4 3 3 4 6 7 8 9 10 12 13 15 17 18 19 20 21 22 23 24 25 26 27 28 29 31
20 19 17 17 17 18 18 18 18 18 19 21 22 24 26 27 28 29 27 26 25 25 25 23 21 20 19 19 21 22 21 19 20 21 23 23 24 23 22 21 19 18 17 17 16 14 13 12 12 12 11 10 9 8 8 7 5 4 3 2 2 3 5 6 7 8 9 10 11 13 14 16 17 18 19 20 21 22 23 25 26 27 28 29 30
17 16 15 15 16 16 17 17 18 19 20 21 23 23 24 26 26 27 27 26 25 26 28 26 24 23 21 20 22 22 20 19 19 20 22 23 23 23 22 21 20 19 19 17 15 14 13 13 13 13 12 11 10 10 9 7 5 4 2 1 1 3 5 6 8 9 10 11 12 13 14 16 18 19 19 20 21 22 23 25 26 27 28 29 29
Wind_Direction
225 209 205 206 204 199 196 194 191 191 196 199 203 205 205 205 206 209 211 213 215 220 227 231 229 227 225 222 219 217 218 220 222 221 223 225 225 225 223 223 223 221 215 217 227 236 246 256 258 259 265 273 283 290 292 295 301 308 312 312 310 308 301 294 302 309 312 314 317 320 324 326 327 327 326 324 324 326 326 325 323 321 320 320 319
224 211 206 204 202 198 194 192 192 193 198 202 206 209 210 211 213 214 216 218 220 221 223 224 222 220 218 216 215 216 217 221 221 220 221 221 222 223 220 218 216 213 214 222 229 238 250 259 261 263 270 280 288 290 294 302 309 312 311 307 306 311 319 321 320 321 320 319 319 320 321 324 327 325 322 321 322 324 325 323 320 318 318 318 317
228 216 210 206 201 199 196 194 195 196 200 205 208 211 214 216 216 215 216 218 220 220 218 217 218 216 213 209 211 216 218 221 221 218 217 216 217 218 213 210 211 215 223 229 233 239 249 258 263 269 279 286 290 294 302 310 311 309 306 305 309 313 317 320 319 319 318 317 317 316 316 320 323 323 320 318 319 322 322 320 317 315 314 313 311
234 223 215 209 205 203 200 198 199 200 202 207 211 214 216 218 218 216 215 216 218 218 218 217 216 216 215 209 208 213 217 218 218 217 215 214 216 214 212 213 214 220 230 235 239 244 252 261 271 282 291 295 303 312 316 316 311 306 303 303 306 308 311 314 315 315 313 312 312 313 315 319 321 320 317 314 315 319 319 317 314 311 309 307 305
239 231 221 216 213 208 203 202 202 204 207 210 213 216 218 219 219 217 216 216 216 217 218 219 216 214 213 212 211 213 215 213 210 212 214 213 210 208 210 213 217 228 242 245 246 249 255 266 278 291 302 311 318 321 319 316 311 304 300 299 301 304 307 310 312 312 311 310 310 311 313 317 321 319 316 315 314 315 315 313 310 307 305 303 301
234 232 227 223 217 210 205 204 204 207 210 213 215 215 215 215 215 217 218 217 216 215 217 216 210 207 209 213 218 219 217 213 209 209 209 206 206 209 210 214 227 243 251 250 247 249 256 270 289 305 315 320 321 320 318 313 306 301 299 299 299 301 304 305 306 308 308 310 310 311 313 316 318 318 316 316 314 314 314 313 309 305 303 301 299
227 225 225 223 218 213 211 209 208 209 211 214 213 210 208 210 214 217 218 218 216 215 216 209 200 200 204 206 212 217 215 216 217 213 209 208 210 212 213 224 244 253 252 248 248 253 264 280 298 312 316 317 318 316 314 308 302 301 299 299 298 299 301 301 302 303 303 305 307 310 312 313 314 314 313 314 312 314 316 315 312 308 305 303 301
228 223 221 220 219 219 217 214 211 211 213 213 210 206 207 212 217 222 223 218 214 215 216 207 196 197 201 200 202 208 210 213 217 216 216 216 212 211 219 239 253 255 254 254 260 267 279 292 301 308 310 312 314 312 309 305 301 300 299 297 296 297 299 300 301 300 300 301 303 305 307 308 309 309 309 310 311 313 315 313 312 310 308 306 304
229 225 221 218 216 216 214 212 212 214 214 210 208 208 210 215 220 228 231 223 214 218 218 207 200 197 197 200 203 207 210 210 211 213 215 215 213 220 238 253 256 256 260 265 274 283 292 302 305 307 309 309 309 306 304 302 300 299 297 296 297 297 299 300 300 300 300 300 300 301 301 302 303 305 306 307 309 311 311 309 308 306 304 302 302
225 223 222 217 212 210 208 209 211 214 213 208 210 214 215 218 221 230 239 233 220 221 221 212 205 197 193 200 205 208 214 213 208 207 209 214 227 245 258 258 257 258 265 275 287 296 301 306 307 307 307 305 303 301 299 298 298 298 298 299 300 300 300 300 300 299 299 298 298 298 298 300 302 304 306 307 307 308 309 310 309 307 304 299 297
222 219 217 212 208 207 205 207 209 211 212 210 214 218 219 222 223 227 236 234 221 218 222 221 212 198 193 200 206 207 211 208 203 206 213 228 245 259 258 254 258 264 278 291 297 301 302 304 305 304 303 301 299 298 297 297 298 300 302 302 301 300 299 299 298 298 298 297 296 297 298 301 303 304 305 306 307 308 310 310 310 310 309 305 300
218 216 212 207 206 206 205 206 207 209 211 214 219 221 221 220 220 223 227 226 220 217 223 219 207 198 200 204 206 203 199 196 198 210 223 238 248 252 253 258 270 283 294 301 301 300 300 300 300 300 299 298 297 297 298 300 302 303 303 301 299 298 298 297 297 297 297 297 298 299 300 301 303 304 306 307 309 310 311 312 312 312 312 310 306
216 214 210 207 207 207 206 206 205 206 211 217 222 222 220 217 216 221 221 216 212 211 215 208 193 195 203 205 207 202 196 196 204 217 228 238 243 247 258 270 282 293 298 299 297 295 296 296 297 296 296 296 298 300 301 303 304 303 301 300 298 297 297 296 296 296 297 299 300 300 300 302 304 306 308 310 311 312 312 313 313 314 314 313 310
216 214 212 210 210 209 206 204 203 208 214 219 223 223 220 217 216 215 208 202 200 198 201 197 190 195 199 201 205 201 198 204 212 224 231 236 242 251 265 277 286 293 295 294 292 292 293 293 293 293 295 296 298 299 301 301 302 301 300 298 297 297 297 296 296 297 299 300 299 300 302 304 306 308 310 311 311 312 311 312 312 313 315 316 314
216 216 215 213 211 207 202 202 206 213 218 219 221 222 220 217 213 208 198 194 194 192 193 193 194 199 200 200 201 200 204 213 221 229 233 237 247 258 269 280 287 291 291 290 290 291 291 291 291 293 293 294 295 297 299 300 300 300 299 298 298 298 297 297 298 299 300 300 301 303 305 306 308 309 310 310 311 312 313 314 314 315 316 316 316
217 216 214 212 208 204 201 204 211 214 216 218 221 223 218 212 208 204 197 192 192 191 192 194 197 201 202 202 202 206 214 223 228 232 237 243 254 263 272 280 286 289 289 288 289 289 289 289 290 291 291 292 294 297 299 300 300 300 299 299 299 298 298 298 299 301 301 303 304 306 307 308 309 310 311 313 315 316 317 318 319 318 319 318 318
219 217 214 210 205 202 203 207 210 210 212 217 221 220 211 205 205 201 195 192 191 189 190 193 197 199 203 206 211 217 223 228 232 238 247 254 261 268 276 282 285 287 287 287 288 287 287 287 286 287 289 293 296 298 299 299 299 300 300 300 300 298 299 300 302 304 305 306 307 307 308 310 312 314 316 318 320 321 321 321 321 321 321 321 321
218 215 211 206 202 203 205 205 205 207 212 217 218 213 204 201 201 196 191 191 191 189 190 193 199 204 209 215 219 224 226 230 238 247 256 261 267 273 278 282 284 285 285 285 284 283 282 282 284 288 292 295 296 296 296 298 300 301 302 302 300 300 302 304 306 307 308 308 308 309 311 314 317 320 322 323 323 324 324 323 324 323 324 324 324
216 213 208 204 202 204 204 202 201 204 210 215 214 209 203 201 198 192 190 191 193 195 196 201 206 209 213 217 220 223 226 233 245 256 264 269 273 277 279 281 281 281 281 281 280 279 280 284 288 292 293 293 293 294 297 300 303 304 304 302 301 303 306 307 307 308 308 309 311 314 318 321 323 324 325 326 326 326 326 325 326 326 326 326 326
214 211 207 206 204 204 203 201 201 202 207 213 213 208 205 202 199 196 195 195 197 200 204 208 210 210 213 216 219 224 231 242 253 264 272 276 277 278 278 278 278 278 278 278 279 281 285 289 291 291 289 291 294 297 301 303 304 304 303 302 302 305 307 306 306 308 310 314 318 322 325 326 326 327 328 328 328 328 328 328 328 328 327 328 328
213 211 209 209 207 203 202 201 202 203 206 212 213 209 206 204 203 203 203 203 205 209 212 214 211 211 214 217 222 229 238 248 258 268 274 276 276 276 275 274 273 274 276 279 283 286 289 288 287 287 288 292 296 299 302 303 304 304 302 301 303 305 305 305 307 311 316 321 325 326 327 328 328 329 330 330 330 330 330 330 330 330 330 330 329
213 212 211 212 210 205 204 203 202 204 207 211 214 212 208 207 207 207 208 210 214 216 217 216 213 214 216 221 228 235 240 248 256 265 272 275 273 270 268 269 270 273 278 283 285 286 285 284 284 286 290 294 297 299 301 302 302 301 299 300 302 303 304 307 313 319 323 326 327 328 329 330 331 331 331 332 333 333 332 333 333 333 332 331 330
213 215 215 216 214 208 206 205 204 208 209 212 216 215 211 210 210 210 213 216 218 217 216 215 215 216 220 225 229 229 229 234 242 258 277 282 276 269 266 267 269 274 279 282 282 281 281 282 284 288 291 293 296 298 299 299 298 298 297 299 301 303 307 315 321 324 327 328 329 330 331 332 332 333 334 335 335 335 336 336 335 334 333 332 331
212 215 217 218 215 211 210 208 209 214 214 214 217 218 215 213 213 214 217 219 218 215 214 215 216 218 222 224 224 222 223 230 243 263 283 287 281 271 266 266 268 273 277 276 275 276 278 282 285 288 290 292 294 295 294 294 295 295 295 298 302 307 315 322 325 326 328 330 331 332 333 333 335 335 337 337 337 338 338 337 336 334 333 334 334
210 215 218 218 217 215 214 214 217 220 218 216 217 218 217 216 216 217 219 219 218 215 215 215 216 219 224 226 227 228 232 241 256 270 280 284 280 271 265 265 267 270 269 269 271 274 278 281 283 285 287 287 288 289 290 292 293 293 295 301 308 316 323 325 326 327 329 331 333 334 334 335 337 338 339 339 339 339 339 337 336 336 336 336 337
206 212 217 219 219 218 217 218 221 223 220 217 217 218 218 216 217 218 218 219 219 218 217 217 219 224 229 234 237 238 241 249 260 268 275 279 274 266 262 262 263 263 262 264 268 273 276 277 279 281 280 281 284 286 289 290 291 292 298 307 315 321 324 325 326 329 331 333 334 334 336 337 339 341 341 341 341 339 338 338 338 339 340 340 340
207 210 215 219 219 218 217 219 221 223 220 216 217 219 217 215 216 217 219 220 220 220 220 221 224 229 234 239 242 242 244 250 256 263 269 271 265 259 256 257 258 258 259 263 266 268 271 272 272 271 272 277 283 286 287 290 292 298 305 313 319 321 323 325 328 331 333 334 334 335 338 341 342 343 343 342 341 340 339 341 342 343 343 343 343
212 211 214 217 218 218 218 219 220 222 219 215 215 218 216 215 216 218 221 222 222 221 221 223 226 230 234 239 241 241 242 247 252 258 262 262 256 251 250 252 254 255 258 261 261 261 262 260 260 265 273 279 281 283 287 292 298 304 310 315 319 321 324 328 331 334 333 333 335 339 342 343 344 345 345 343 342 342 344 345 346 346 346 346 346
213 213 214 217 218 218 219 220 220 220 218 215 214 216 217 217 218 219 221 222 223 223 223 223 224 227 231 235 238 238 240 245 250 253 255 251 245 245 248 250 251 254 255 254 253 251 247 247 258 269 275 277 278 283 290 296 303 310 314 316 319 321 326 331 333 334 334 335 339 343 345 346 347 347 345 345 345 346 348 349 348 348 349 348 348
216 216 219 222 222 220 220 223 224 222 217 214 214 216 218 220 220 220 220 221 222 223 223 224 224 227 230 232 235 239 242 245 246 247 246 240 238 243 248 248 248 248 245 243 242 238 238 251 266 270 270 271 277 286 293 300 309 315 316 316 319 324 328 332 333 333 336 340 343 346 347 348 349 348 347 347 350 351 352 351 351 351 351 350 349
221 221 226 229 229 225 222 224 226 224 219 215 214 216 219 222 223 222 221 221 222 222 223 224 225 227 230 233 237 242 243 241 238 236 234 231 234 241 245 245 243 239 235 233 230 234 249 263 265 260 260 268 278 288 297 308 315 316 315 316 320 325 328 330 331 335 341 345 346 347 349 350 349 348 349 353 355 355 354 353 354 353 353 352 351
223 225 229 234 237 235 230 226 224 223 220 216 215 216 219 223 225 225 223 223 223 224 223 222 223 227 232 235 237 239 238 234 227 224 223 224 229 237 240 238 235 230 227 224 229 245 259 258 250 249 258 271 282 295 306 314 316 314 314 317 320 325 327 329 334 340 344 346 348 350 351 350 350 350 355 358 358 356 356 355 356 356 355 355 354
224 227 231 237 241 241 238 233 225 221 220 218 218 217 218 222 225 226 227 227 226 225 222 219 222 228 232 232 233 234 234 229 220 215 216 219 226 232 231 228 227 225 223 227 242 255 251 240 239 249 263 276 290 304 311 314 314 313 314 317 321 325 328 332 338 343 346 349 350 351 351 351 352 355 359 0 359 358 357 357 357 358 357 357 357
227 230 233 237 241 242 242 236 226 221 220 219 218 217 217 220 222 225 229 232 231 229 224 219 223 230 233 229 226 227 226 221 216 213 212 216 225 227 221 221 222 221 224 237 248 244 230 229 241 253 267 284 298 307 309 310 311 312 313 317 322 327 331 337 343 346 349 351 351 351 352 352 355 359 1 1 359 359 358 358 359 0 360 359 359
229 231 234 236 236 236 237 230 222 219 220 221 220 217 217 218 221 225 230 233 234 230 226 224 226 233 238 235 229 223 218 212 210 210 211 217 223 220 215 219 222 224 232 241 238 227 223 231 244 257 274 291 298 302 304 306 309 310 313 319 325 330 336 342 346 348 351 351 350 351 354 355 358 1 2 0 359 359 360 0 2 3 2 1 2
230 232 235 235 235 236 234 226 219 217 220 222 220 218 217 217 220 225 230 233 233 230 229 232 232 234 239 241 236 227 219 212 207 207 213 219 219 216 215 219 224 230 235 233 223 220 226 235 246 262 278 289 294 297 300 303 307 310 315 323 329 335 340 344 348 351 353 351 351 354 356 359 2 3 2 0 359 359 1 3 5 5 4 4 4
217 223 226 227 231 233 230 226 220 217 218 221 220 218 216 217 220 225 229 233 233 230 233 238 239 237 237 236 232 225 217 212 208 209 214 215 214 216 216 219 226 231 228 221 217 220 227 234 247 264 274 285 291 292 296 301 306 313 321 329 335 339 343 347 351 354 353 351 353 357 0 3 4 4 2 0 360 0 2 4 6 7 6 5 5
209 216 225 232 234 231 226 223 218 215 216 218 218 216 217 217 219 224 230 233 231 231 236 239 241 245 240 228 219 215 212 210 210 209 211 211 213 217 218 222 228 227 218 214 215 219 224 234 246 260 272 282 286 287 294 302 308 319 329 335 339 343 346 351 355 354 353 353 357 2 5 6 6 4 2 1 1 2 3 5 7 8 8 6 6
222 227 243 254 256 251 240 228 222 217 211 206 206 216 226 226 220 219 225 231 230 231 237 238 242 253 246 223 209 206 208 211 212 210 207 208 213 218 223 227 226 220 215 213 214 216 223 233 245 258 271 277 281 286 296 305 314 327 337 339 342 347 352 356 357 355 355 358 4 7 8 8 6 4 3 3 3 4 5 6 7 8 8 8 8
236 241 253 260 264 268 260 247 236 225 212 203 203 219 233 238 230 219 219 226 228 230 233 232 239 252 242 217 204 203 207 212 215 212 207 207 212 221 228 227 219 214 214 214 213 217 223 233 245 258 267 271 277 287 297 307 320 333 339 341 346 353 358 1 359 358 0 5 10 11 10 9 8 7 6 5 6 7 8 8 8 8 9 10 11
239 245 254 261 261 258 256 253 248 236 223 213 212 226 237 241 231 217 216 223 228 229 228 228 238 246 234 214 206 204 208 213 217 215 211 209 214 223 226 220 212 211 213 213 215 219 224 234 247 256 261 267 276 286 295 310 327 336 338 344 353 360 4 5 3 3 7 12 14 13 11 9 9 9 9 9 8 10 11 10 9 10 11 11 11
253 258 263 263 259 251 245 241 238 237 230 220 218 228 235 229 214 210 217 221 222 224 224 230 242 244 229 217 213 208 209 215 219 219 218 215 217 222 220 213 210 210 211 212 216 220 225 235 247 254 258 265 275 283 295 315 331 334 338 350 1 8 9 9 8 10 13 15 15 14 11 11 11 11 11 11 10 12 13 12 11 12 13 13 11
260 264 265 260 252 244 238 234 231 230 230 225 223 227 224 212 204 210 219 219 220 224 227 234 243 241 226 220 220 215 214 219 222 223 223 220 220 220 215 211 210 210 210 212 215 219 226 236 244 250 255 262 269 278 294 317 327 330 344 2 13 16 15 14 16 18 17 16 16 14 11 11 12 12 12 12 11 11 13 13 12 13 13 13 13
253 256 258 254 249 243 236 232 228 226 226 227 226 224 217 206 201 206 213 217 223 228 229 232 236 232 221 218 221 221 221 222 224 225 225 223 220 216 212 211 212 210 209 211 213 217 226 235 242 245 249 254 260 269 286 308 317 330 0 20 23 22 22 23 25 24 20 17 15 14 12 11 11 12 12 12 11 11 11 11 11 11 12 12 12
246 249 252 250 247 244 239 233 228 225 225 226 226 223 212 198 196 207 215 218 222 227 229 230 229 224 219 217 220 225 225 224 225 225 224 222 219 213 210 212 213 211 210 209 210 217 225 232 236 239 242 244 247 254 269 285 299 344 31 36 32 30 32 34 32 28 22 17 14 13 11 10 10 10 10 10 11 10 9 9 9 8 9 9 10
250 253 255 252 247 246 246 240 232 228 227 227 227 221 205 195 202 217 220 217 222 228 230 230 225 219 219 222 228 231 229 225 224 223 218 215 213 211 209 211 212 211 211 209 211 219 225 228 231 233 234 236 237 237 236 242 240 76 63 54 46 40 41 40 37 31 23 15 10 9 8 6 5 5 5 6 7 7 6 6 5 5 5 6 7
251 251 251 250 248 248 250 247 239 232 230 230 229 220 205 200 207 212 208 213 225 231 230 227 220 215 223 234 239 235 229 225 223 221 215 212 211 210 208 209 210 210 210 211 216 221 223 225 227 229 229 228 225 219 211 205 175 115 86 72 59 46 42 41 37 30 20 11 5 2 1 359 357 358 359 360 1 1 0 360 360 360 1 3 5
245 245 247 249 246 243 243 242 239 235 232 233 234 225 211 203 202 202 206 219 231 230 225 222 216 215 228 240 238 231 226 224 222 219 215 215 214 211 208 207 207 207 208 214 220 221 221 221 221 222 223 219 212 204 197 188 165 129 102 84 65 41 33 34 32 24 14 5 358 353 351 350 350 351 351 351 352 352 352 352 354 355 356 359 1
243 243 244 243 239 235 233 232 232 233 234 235 235 228 215 203 200 202 212 227 232 225 218 218 217 217 226 234 233 227 223 222 220 217 216 216 213 209 207 207 206 204 206 214 218 218 218 219 219 219 216 210 202 196 191 182 164 136 112 92 66 26 16 21 20 13 6 358 352 348 345 343 342 342 342 342 342 343 344 345 348 349 351 353 355
239 238 236 234 231 229 229 228 228 230 233 234 233 227 215 205 202 205 212 226 232 223 215 216 218 220 225 230 228 224 222 222 220 216 216 216 212 207 207 208 206 205 209 216 220 218 217 218 219 218 214 206 198 193 189 181 167 146 126 103 53 359 360 4 1 356 351 347 345 344 340 337 335 335 335 336 337 338 339 341 343 345 347 349 351
233 232 230 229 229 228 230 231 229 228 231 233 232 225 212 205 205 208 214 227 234 225 216 214 215 217 223 226 223 221 222 224 221 216 214 213 210 208 208 207 206 207 211 216 220 220 218 217 217 216 212 205 198 193 190 185 174 164 160 155 325 335 345 347 340 337 336 334 334 336 334 332 331 330 331 333 334 335 337 339 341 343 344 346 348
Height
3130 3131 3132 3133 3134 3134 3136 3137 3138 3139 3140 3141 3142 3143 3145 3146 3147 3147 3148 3148 3149 3150 3152 3153 3155 3156 3156 3157 3157 3158 3159 3159 3159 3160 3160 3161 3162 3163 3164 3164 3165 3165 3165 3166 3166 3166 3166 3167 3167 3167 3168 3167 3167 3166 3166 3165 3164 3162 3161 3161 3161 3162 3162 3161 3161 3160 3160 3159 3158 3157 3157 3157 3156 3155 3153 3152 3151 3151 3150 3148 3147 3146 3144 3143 3141
3128 3129 3130 3131 3132 3133 3134 3136 3137 3138 3139 3139 3140 3142 3143 3144 3145 3145 3146 3147 3147 3149 3150 3152 3153 3154 3155 3155 3156 3156 3157 3157 3158 3159 3160 3160 3162 3163 3163 3164 3164 3165 3165 3165 3165 3165 3165 3166 3166 3166 3166 3166 3165 3165 3165 3164 3162 3161 3161 3161 3161 3161 3160 3160 3160 3159 3159 3158 3157 3157 3156 3155 3154 3153 3152 3151 3150 3149 3149 3147 3146 3144 3143 3142 3140
3125 3127 3128 3129 3131 3132 3133 3134 3135 3137 3138 3138 3139 3140 3141 3142 3143 3144 3144 3145 3146 3147 3148 3149 3151 3151 3152 3153 3154 3155 3155 3156 3157 3158 3159 3160 3161 3162 3162 3163 3164 3164 3164 3165 3165 3165 3165 3165 3165 3165 3165 3164 3164 3164 3163 3162 3161 3161 3161 3161 3160 3160 3159 3159 3159 3158 3157 3157 3156 3156 3155 3155 3154 3153 3152 3150 3149 3148 3148 3147 3145 3143 3142 3140 3139
3124 3125 3126 3127 3129 3130 3132 3133 3134 3135 3136 3137 3138 3139 3140 3141 3142 3142 3143 3144 3145 3145 3146 3147 3148 3149 3150 3151 3152 3153 3154 3155 3157 3158 3159 3160 3161 3161 3162 3163 3163 3163 3164 3164 3164 3164 3164 3164 3164 3164 3164 3163 3163 3162 3162 3161 3161 3161 3161 3160 3159 3159 3158 3158 3157 3157 3156 3156 3155 3155 3154 3154 3153 3152 3151 3149 3148 3147 3146 3145 3143 3141 3140 3138 3136
3122 3123 3124 3126 3127 3129 3130 3132 3133 3134 3135 3136 3137 3138 3139 3140 3140 3141 3141 3142 3143 3143 3145 3145 3146 3147 3149 3150 3151 3152 3153 3155 3156 3158 3159 3159 3160 3161 3162 3162 3163 3163 3163 3163 3163 3163 3163 3163 3163 3163 3163 3162 3162 3161 3161 3161 3161 3161 3160 3160 3159 3158 3158 3157 3156 3155 3155 3154 3154 3153 3153 3152 3152 3151 3150 3149 3147 3145 3144 3143 3142 3139 3137 3135 3133
3121 3122 3123 3124 3126 3127 3129 3131 3132 3133 3134 3135 3136 3137 3138 3139 3139 3139 3140 3140 3141 3142 3143 3143 3144 3146 3148 3149 3151 3152 3153 3154 3156 3157 3158 3159 3160 3161 3161 3162 3162 3163 3163 3163 3163 3163 3163 3163 3162 3162 3162 3161 3161 3161 3161 3161 3161 3160 3160 3159 3158 3157 3157 3156 3155 3154 3153 3153 3152 3152 3152 3151 3150 3149 3148 3147 3146 3144 3142 3141 3139 3137 3134 3132 3130
3119 3120 3122 3123 3125 3126 3128 3129 3130 3132 3133 3134 3135 3136 3137 3138 3138 3138 3138 3138 3139 3140 3139 3140 3143 3145 3146 3148 3150 3151 3152 3154 3155 3156 3157 3158 3159 3160 3161 3161 3162 3162 3162 3162 3162 3162 3162 3162 3162 3162 3161 3161 3161 3161 3161 3161 3160 3160 3159 3158 3157 3156 3156 3155 3154 3154 3153 3152 3151 3151 3150 3149 3148 3147 3146 3145 3144 3143 3141 3139 3137 3135 3131 3128 3126
3117 3118 3120 3122 3124 3125 3127 3128 3129 3130 3131 3132 3134 3135 3136 3136 3137 3136 3135 3135 3137 3138 3138 3140 3142 3143 3145 3147 3149 3150 3152 3153 3154 3156 3157 3158 3159 3160 3161 3161 3161 3161 3161 3161 3162 3162 3162 3162 3162 3161 3161 3161 3161 3161 3160 3160 3160 3159 3158 3157 3156 3155 3155 3154 3153 3152 3152 3151 3150 3149 3148 3147 3146 3145 3144 3142 3141 3140 3140 3138 3136 3133 3130 3125 3122
3116 3117 3119 3121 3122 3124 3126 3127 3128 3129 3130 3131 3133 3134 3135 3135 3136 3135 3134 3136 3139 3140 3139 3140 3140 3141 3144 3146 3148 3150 3151 3152 3154 3155 3156 3158 3159 3160 3160 3161 3161 3161 3161 3161 3161 3161 3161 3161 3161 3161 3160 3160 3160 3160 3159 3159 3158 3158 3157 3156 3155 3154 3153 3152 3152 3151 3150 3149 3148 3147 3145 3144 3143 3142 3140 3139 3137 3136 3136 3135 3134 3133 3130 3125 3121
3114 3116 3118 3120 3121 3122 3124 3125 3127 3128 3129 3130 3131 3133 3134 3134 3135 3135 3135 3138 3141 3141 3140 3139 3138 3139 3142 3145 3148 3149 3151 3152 3154 3155 3156 3157 3158 3159 3160 3160 3160 3160 3160 3160 3160 3160 3160 3160 3160 3160 3159 3159 3159 3159 3158 3157 3157 3156 3155 3154 3153 3152 3151 3150 3149 3149 3148 3147 3146 3144 3143 3141 3140 3139 3137 3135 3133 3132 3130 3130 3129 3128 3128 3125 3121
3112 3114 3116 3118 3119 3121 3122 3124 3125 3127 3128 3129 3130 3131 3132 3133 3134 3135 3136 3138 3139 3140 3140 3141 3140 3141 3143 3146 3147 3149 3151 3152 3153 3155 3156 3157 3158 3159 3159 3160 3160 3160 3160 3160 3160 3160 3159 3159 3159 3159 3158 3158 3158 3157 3157 3156 3155 3154 3153 3152 3151 3150 3149 3148 3147 3146 3145 3144 3143 3142 3140 3139 3137 3136 3134 3132 3130 3128 3127 3125 3124 3123 3122 3121 3119
3110 3112 3113 3116 3117 3118 3120 3122 3124 3126 3127 3128 3129 3130 3131 3132 3134 3135 3135 3136 3138 3139 3140 3141 3142 3142 3144 3146 3147 3148 3150 3152 3153 3154 3155 3156 3157 3158 3158 3159 3159 3159 3159 3159 3159 3159 3159 3158 3158 3158 3157 3157 3156 3155 3155 3154 3153 3152 3151 3150 3149 3148 3147 3146 3145 3144 3143 3142 3141 3139 3138 3136 3135 3133 3131 3129 3127 3125 3123 3121 3120 3119 3119 3117 3115
3108 3110 3111 3113 3115 3116 3118 3120 3123 3125 3126 3127 3128 3129 3130 3131 3133 3134 3135 3136 3137 3138 3139 3141 3141 3143 3145 3146 3147 3148 3150 3151 3153 3154 3154 3155 3156 3157 3157 3158 3158 3158 3159 3159 3158 3158 3158 3157 3157 3156 3156 3155 3154 3153 3152 3152 3151 3150 3150 3149 3148 3147 3145 3144 3143 3142 3141 3140 3139 3137 3135 3134 3132 3130 3128 3126 3124 3122 3120 3119 3117 3116 3115 3114 3112
3106 3107 3109 3111 3113 3115 3117 3119 3122 3123 3125 3126 3126 3128 3129 3130 3132 3133 3134 3135 3136 3137 3139 3140 3141 3143 3144 3146 3147 3148 3149 3151 3152 3153 3154 3155 3155 3156 3156 3157 3157 3158 3158 3158 3157 3157 3156 3156 3155 3155 3154 3153 3152 3151 3151 3150 3150 3149 3148 3147 3146 3145 3143 3142 3141 3140 3139 3138 3136 3135 3133 3131 3130 3128 3126 3124 3122 3120 3118 3116 3115 3114 3113 3111 3109
3104 3105 3107 3109 3111 3114 3116 3119 3121 3122 3123 3124 3125 3127 3128 3129 3130 3132 3133 3134 3135 3137 3138 3139 3141 3142 3144 3145 3146 3148 3149 3150 3151 3152 3153 3154 3155 3155 3155 3156 3156 3157 3157 3156 3156 3155 3154 3154 3153 3153 3152 3151 3151 3150 3149 3149 3148 3147 3147 3145 3144 3143 3141 3140 3139 3138 3138 3136 3135 3133 3131 3130 3128 3126 3124 3122 3120 3118 3116 3113 3112 3111 3110 3109 3108
3102 3103 3105 3107 3110 3113 3115 3117 3119 3121 3122 3123 3124 3126 3127 3128 3129 3131 3132 3134 3135 3136 3137 3139 3141 3142 3143 3145 3146 3147 3148 3149 3150 3151 3152 3153 3154 3154 3155 3155 3155 3155 3155 3154 3154 3153 3153 3152 3151 3151 3150 3150 3149 3149 3148 3147 3146 3146 3144 3143 3142 3140 3139 3138 3138 3137 3136 3135 3133 3131 3130 3128 3126 3124 3122 3120 3118 3115 3113 3111 3108 3106 3105 3105 3105
3100 3101 3103 3106 3109 3112 3114 3116 3118 3120 3121 3122 3123 3125 3126 3127 3129 3130 3132 3133 3135 3136 3137 3139 3140 3142 3143 3144 3145 3146 3147 3148 3149 3150 3151 3152 3152 3153 3154 3154 3154 3154 3153 3152 3152 3151 3151 3150 3150 3149 3149 3148 3147 3147 3146 3145 3144 3144 3142 3141 3139 3138 3137 3137 3137 3136 3134 3133 3131 3129 3128 3126 3124 3122 3120 3118 3116 3113 3111 3108 3106 3104 3101 3099 3099
3098 3100 3103 3105 3108 3110 3112 3115 3117 3119 3120 3121 3123 3124 3125 3127 3128 3129 3131 3133 3134 3135 3137 3138 3139 3141 3142 3143 3144 3145 3146 3147 3148 3149 3150 3150 3151 3152 3152 3152 3152 3152 3151 3151 3150 3150 3150 3149 3148 3148 3147 3146 3146 3145 3144 3143 3143 3142 3140 3139 3138 3137 3136 3136 3135 3134 3132 3131 3129 3128 3126 3124 3122 3120 3118 3116 3113 3111 3108 3106 3103 3101 3099 3096 3094
3096 3098 3101 3104 3106 3109 3111 3113 3115 3117 3119 3120 3121 3123 3124 3125 3127 3128 3130 3132 3133 3135 3136 3138 3139 3140 3141 3142 3143 3144 3145 3146 3147 3148 3148 3149 3150 3150 3150 3151 3150 3150 3150 3149 3149 3149 3148 3147 3147 3146 3145 3145 3144 3143 3142 3142 3141 3140 3139 3138 3136 3136 3135 3135 3133 3132 3131 3129 3127 3126 3124 3122 3120 3118 3116 3114 3111 3109 3106 3104 3101 3099 3097 3095 3092
3094 3097 3100 3102 3105 3108 3110 3112 3114 3116 3117 3119 3120 3121 3123 3124 3126 3127 3129 3131 3132 3134 3135 3137 3138 3139 3140 3141 3142 3143 3144 3145 3146 3147 3147 3148 3148 3148 3149 3149 3149 3149 3148 3148 3147 3147 3146 3146 3145 3145 3144 3143 3142 3141 3141 3140 3139 3138 3137 3136 3135 3135 3134 3133 3132 3131 3129 3128 3126 3124 3123 3121 3119 3116 3114 3112 3109 3107 3104 3102 3100 3097 3095 3093 3090
3093 3096 3099 3101 3104 3106 3108 3111 3113 3115 3116 3118 3119 3120 3122 3123 3125 3127 3128 3130 3132 3133 3135 3136 3137 3138 3140 3141 3142 3142 3143 3144 3145 3145 3146 3146 3147 3147 3147 3147 3147 3147 3146 3146 3146 3145 3145 3144 3144 3143 3142 3142 3141 3140 3139 3139 3138 3137 3136 3135 3135 3134 3133 3132 3131 3130 3128 3127 3125 3123 3121 3119 3117 3115 3112 3110 3108 3105 3103 3101 3098 3096 3093 3090 3087
3093 3095 3098 3100 3103 3105 3107 3109 3111 3113 3115 3116 3118 3119 3121 3122 3124 3126 3127 3129 3131 3132 3134 3135 3136 3137 3138 3140 3141 3141 3142 3143 3144 3144 3145 3145 3145 3145 3145 3145 3146 3145 3145 3144 3144 3143 3143 3143 3142 3142 3141 3140 3139 3139 3138 3138 3137 3136 3135 3135 3134 3133 3132 3131 3130 3128 3127 3125 3123 3121 3119 3117 3115 3113 3111 3109 3107 3104 3102 3099 3096 3093 3091 3087 3084
3092 3094 3096 3099 3101 3104 3105 3107 3110 3111 3113 3115 3116 3118 3120 3121 3123 3125 3126 3128 3129 3131 3132 3133 3135 3136 3137 3138 3139 3140 3141 3142 3143 3144 3144 3144 3144 3144 3144 3144 3144 3143 3143 3143 3142 3142 3142 3141 3141 3140 3139 3139 3138 3138 3137 3137 3136 3135 3134 3134 3133 3132 3131 3130 3129 3127 3126 3124 3122 3120 3118 3116 3114 3112 3110 3107 3105 3103 3100 3097 3094 3091 3088 3085 3082
3090 3093 3095 3097 3100 3102 3104 3106 3108 3110 3112 3114 3115 3117 3118 3120 3122 3123 3125 3127 3128 3129 3131 3132 3134 3135 3136 3137 3138 3139 3140 3141 3142 3142 3143 3143 3142 3142 3142 3142 3142 3142 3141 3141 3141 3141 3140 3140 3139 3138 3138 3138 3137 3137 3136 3136 3135 3134 3134 3133 3133 3132 3130 3129 3128 3126 3124 3123 3121 3119 3117 3115 3113 3110 3108 3106 3103 3101 3098 3095 3093 3090 3086 3083 3080
3088 3091 3093 3095 3098 3100 3103 3105 3107 3108 3110 3112 3114 3115 3117 3119 3121 3122 3124 3125 3127 3128 3129 3131 3132 3134 3135 3136 3137 3138 3139 3140 3140 3141 3141 3141 3141 3140 3140 3140 3140 3140 3140 3140 3139 3139 3138 3138 3138 3137 3137 3136 3136 3136 3136 3135 3135 3134 3133 3133 3132 3131 3129 3128 3127 3125 3123 3122 3120 3118 3116 3114 3112 3109 3107 3104 3101 3099 3096 3094 3091 3088 3085 3081 3077
3087 3089 3091 3094 3097 3099 3102 3104 3105 3107 3109 3111 3112 3114 3116 3118 3119 3121 3122 3124 3125 3126 3128 3129 3131 3132 3133 3135 3135 3136 3137 3138 3139 3139 3139 3139 3139 3138 3138 3138 3139 3139 3138 3138 3138 3137 3137 3136 3136 3136 3136 3135 3135 3135 3135 3134 3134 3133 3132 3132 3131 3130 3129 3127 3126 3124 3122 3121 3119 3117 3115 3113 3110 3108 3105 3102 3100 3097 3094 3092 3089 3086 3082 3079 3075
3086 3088 3091 3093 3095 3098 3100 3102 3104 3106 3107 3109 3111 3112 3114 3116 3118 3119 3121 3122 3123 3125 3126 3127 3129 3130 3132 3133 3133 3134 3135 3136 3137 3137 3137 3137 3136 3136 3137 3137 3137 3137 3137 3136 3136 3136 3135 3135 3135 3135 3135 3135 3134 3134 3134 3134 3133 3132 3131 3130 3130 3129 3128 3126 3125 3123 3121 3119 3118 3116 3114 3112 3109 3106 3104 3101 3098 3096 3093 3090 3087 3083 3080 3076 3072
3084 3087 3090 3092 3094 3097 3099 3101 3103 3104 3106 3108 3109 3111 3113 3115 3116 3117 3119 3121 3122 3123 3125 3126 3127 3129 3130 3131 3132 3133 3133 3134 3135 3135 3135 3134 3134 3135 3135 3135 3135 3135 3135 3135 3134 3134 3134 3134 3134 3134 3134 3134 3133 3133 3133 3133 3132 3131 3130 3129 3128 3128 3126 3125 3123 3122 3120 3118 3117 3115 3112 3110 3107 3104 3102 3099 3097 3094 3091 3088 3084 3081 3077 3073 3070
3083 3086 3088 3091 3093 3096 3098 3100 3101 3102 3104 3106 3108 3110 3111 3113 3114 3116 3117 3119 3120 3122 3123 3125 3126 3127 3129 3129 3130 3131 3131 3132 3132 3132 3132 3132 3132 3132 3133 3133 3133 3133 3133 3133 3133 3133 3133 3133 3133 3133 3133 3133 3133 3132 3132 3132 3131 3130 3129 3128 3127 3126 3125 3124 3122 3121 3120 3117 3115 3113 3111 3108 3106 3103 3100 3097 3094 3091 3088 3085 3082 3078 3075 3071 3067
3082 3085 3088 3090 3092 3094 3096 3098 3099 3100 3102 3104 3106 3108 3110 3111 3113 3114 3115 3117 3119 3120 3121 3123 3124 3126 3127 3127 3128 3128 3129 3130 3130 3130 3130 3130 3130 3130 3131 3131 3132 3132 3132 3131 3131 3131 3132 3132 3132 3132 3132 3132 3132 3132 3131 3131 3130 3129 3128 3126 3126 3125 3123 3122 3121 3120 3119 3116 3114 3111 3109 3107 3104 3102 3100 3097 3093 3090 3087 3083 3080 3076 3073 3069 3066
3082 3085 3086 3088 3090 3092 3094 3096 3097 3099 3101 3102 3104 3106 3108 3109 3110 3112 3113 3115 3116 3118 3119 3121 3122 3123 3124 3125 3125 3126 3126 3126 3127 3127 3127 3127 3128 3128 3129 3129 3130 3130 3130 3130 3130 3130 3130 3131 3131 3131 3131 3131 3131 3131 3130 3130 3129 3128 3127 3126 3125 3124 3123 3122 3120 3119 3117 3115 3113 3111 3108 3106 3104 3102 3099 3096 3093 3090 3087 3084 3080 3077 3073 3069 3065
3081 3084 3085 3086 3087 3089 3092 3094 3096 3097 3099 3100 3102 3104 3106 3107 3108 3110 3111 3112 3114 3116 3117 3119 3120 3121 3122 3122 3123 3123 3123 3123 3124 3124 3124 3125 3125 3126 3127 3127 3127 3128 3128 3128 3129 3129 3129 3130 3130 3130 3131 3130 3130 3130 3129 3129 3128 3127 3126 3125 3124 3123 3122 3121 3119 3117 3115 3113 3112 3110 3108 3106 3104 3101 3099 3096 3093 3090 3087 3084 3081 3078 3074 3071 3066
3080 3082 3084 3085 3086 3087 3089 3092 3094 3096 3097 3098 3100 3102 3104 3105 3106 3107 3109 3110 3112 3113 3114 3116 3118 3118 3119 3119 3120 3120 3119 3120 3121 3121 3122 3122 3123 3124 3125 3125 3126 3126 3127 3127 3128 3128 3129 3129 3130 3130 3130 3129 3129 3129 3128 3128 3127 3126 3125 3124 3123 3122 3121 3119 3118 3116 3114 3112 3110 3108 3107 3105 3103 3100 3098 3095 3093 3090 3088 3085 3082 3079 3075 3072 3068
3079 3081 3082 3083 3084 3086 3087 3089 3091 3093 3094 3095 3097 3099 3101 3103 3104 3105 3107 3108 3109 3109 3111 3114 3115 3115 3115 3116 3116 3115 3116 3117 3118 3118 3119 3120 3121 3122 3123 3123 3124 3125 3125 3126 3126 3127 3128 3129 3129 3129 3129 3128 3128 3128 3127 3127 3126 3125 3124 3123 3122 3121 3119 3118 3116 3114 3113 3111 3109 3108 3106 3104 3102 3099 3097 3095 3093 3090 3088 3085 3082 3079 3075 3071 3067
3077 3079 3080 3081 3082 3083 3084 3086 3088 3089 3091 3092 3094 3096 3098 3099 3101 3103 3104 3105 3106 3107 3110 3111 3112 3112 3112 3111 3111 3111 3112 3113 3115 3116 3117 3118 3119 3120 3121 3122 3123 3123 3124 3125 3125 3126 3127 3128 3128 3128 3128 3127 3127 3127 3127 3126 3125 3124 3123 3122 3121 3120 3118 3116 3115 3113 3112 3110 3109 3107 3105 3103 3101 3098 3096 3094 3092 3090 3087 3085 3081 3078 3075 3071 3067
3076 3077 3078 3078 3079 3080 3082 3083 3084 3086 3087 3089 3090 3093 3094 3097 3098 3100 3101 3102 3104 3106 3108 3109 3109 3110 3109 3109 3110 3110 3111 3112 3114 3115 3116 3117 3117 3118 3119 3120 3121 3122 3123 3123 3124 3126 3126 3127 3127 3127 3127 3126 3126 3126 3126 3125 3125 3124 3122 3121 3120 3118 3117 3115 3114 3112 3111 3109 3108 3106 3104 3102 3100 3098 3096 3094 3091 3089 3087 3084 3081 3078 3075 3071 3067
3074 3075 3075 3076 3077 3078 3079 3081 3082 3083 3084 3086 3088 3089 3091 3094 3096 3097 3099 3100 3102 3104 3106 3106 3107 3108 3107 3107 3108 3109 3110 3112 3113 3114 3115 3115 3116 3117 3118 3119 3120 3121 3121 3122 3124 3125 3125 3126 3126 3126 3126 3125 3125 3125 3125 3124 3123 3122 3121 3120 3119 3117 3116 3114 3113 3111 3110 3109 3108 3106 3104 3102 3099 3097 3095 3093 3091 3089 3086 3083 3081 3077 3074 3071 3068
3071 3072 3073 3074 3075 3075 3076 3078 3079 3081 3082 3084 3086 3087 3089 3091 3093 3095 3096 3098 3100 3102 3103 3104 3106 3106 3105 3106 3106 3107 3108 3110 3112 3113 3114 3114 3114 3115 3117 3118 3118 3119 3120 3121 3123 3123 3124 3124 3125 3125 3125 3124 3124 3124 3123 3123 3122 3121 3120 3119 3118 3116 3115 3113 3112 3111 3110 3108 3107 3105 3103 3101 3099 3097 3095 3093 3091 3088 3085 3083 3080 3076 3073 3070 3066
3069 3070 3071 3072 3073 3074 3075 3076 3077 3078 3080 3082 3084 3086 3088 3089 3091 3093 3094 3096 3098 3100 3101 3103 3103 3103 3103 3104 3104 3105 3106 3108 3109 3111 3112 3112 3113 3114 3115 3116 3117 3118 3119 3120 3121 3122 3123 3123 3123 3123 3123 3123 3123 3123 3122 3121 3120 3119 3119 3118 3117 3115 3114 3113 3112 3110 3109 3108 3106 3104 3102 3100 3099 3097 3095 3093 3090 3087 3085 3081 3078 3076 3073 3069 3065
3068 3069 3070 3070 3072 3073 3074 3075 3076 3077 3079 3080 3082 3085 3086 3087 3089 3090 3092 3094 3096 3098 3099 3100 3101 3101 3101 3102 3102 3103 3105 3106 3107 3109 3109 3110 3111 3112 3113 3115 3116 3117 3118 3119 3120 3121 3121 3122 3122 3122 3122 3122 3122 3121 3120 3120 3119 3118 3117 3117 3116 3114 3113 3112 3111 3110 3109 3107 3105 3104 3102 3101 3099 3097 3095 3092 3090 3087 3084 3081 3078 3075 3072 3068 3064
3066 3067 3068 3069 3071 3072 3073 3074 3075 3075 3077 3078 3080 3083 3084 3085 3087 3088 3090 3093 3095 3096 3097 3098 3098 3098 3099 3100 3101 3102 3103 3104 3105 3106 3107 3108 3110 3111 3112 3113 3115 3116 3117 3118 3119 3120 3120 3120 3121 3121 3121 3121 3120 3120 3119 3118 3118 3117 3116 3116 3114 3113 3112 3111 3110 3109 3108 3106 3105 3103 3102 3101 3099 3097 3095 3093 3090 3087 3084 3081 3078 3075 3071 3067 3064
3064 3065 3067 3068 3069 3071 3072 3073 3073 3073 3074 3075 3077 3080 3081 3082 3085 3087 3089 3091 3092 3093 3094 3095 3095 3096 3097 3099 3100 3100 3101 3102 3103 3104 3105 3106 3108 3109 3110 3111 3113 3115 3116 3117 3118 3118 3119 3119 3119 3120 3120 3119 3119 3118 3118 3117 3116 3116 3116 3115 3113 3112 3111 3111 3110 3109 3108 3106 3105 3104 3102 3101 3099 3097 3095 3092 3090 3087 3084 3081 3078 3075 3072 3069 3065
3063 3064 3065 3066 3068 3069 3069 3070 3071 3071 3072 3073 3074 3076 3077 3080 3083 3085 3087 3088 3089 3091 3092 3093 3094 3095 3096 3097 3098 3099 3100 3101 3101 3102 3103 3105 3106 3107 3109 3110 3112 3113 3114 3115 3116 3117 3117 3118 3118 3118 3118 3118 3118 3117 3116 3116 3116 3116 3115 3114 3113 3112 3111 3111 3110 3109 3107 3106 3105 3104 3102 3101 3099 3097 3095 3092 3090 3087 3084 3082 3079 3075 3072 3069 3066
3061 3062 3063 3064 3065 3066 3067 3068 3068 3069 3069 3070 3071 3073 3075 3077 3080 3082 3085 3086 3088 3089 3090 3091 3092 3093 3094 3095 3096 3097 3098 3099 3100 3101 3101 3103 3104 3106 3107 3109 3110 3112 3113 3114 3115 3115 3116 3116 3117 3117 3117 3117 3116 3116 3116 3115 3115 3115 3114 3113 3112 3111 3111 3110 3110 3108 3107 3106 3105 3103 3102 3100 3099 3097 3095 3092 3090 3087 3084 3082 3079 3076 3073 3070 3067
3059 3060 3061 3062 3063 3064 3064 3065 3065 3066 3067 3068 3069 3070 3072 3075 3077 3080 3082 3084 3085 3087 3088 3088 3090 3091 3092 3093 3094 3095 3096 3097 3098 3099 3100 3101 3103 3104 3106 3107 3109 3110 3111 3112 3113 3114 3114 3115 3116 3116 3116 3116 3115 3115 3115 3115 3115 3114 3113 3112 3112 3111 3111 3110 3109 3108 3107 3106 3104 3103 3102 3100 3098 3096 3094 3092 3090 3087 3084 3082 3079 3076 3073 3070 3067
3057 3058 3059 3060 3060 3061 3062 3062 3063 3063 3064 3065 3067 3068 3071 3073 3075 3077 3079 3081 3083 3084 3084 3086 3088 3089 3090 3091 3092 3093 3094 3095 3096 3096 3098 3099 3101 3103 3104 3106 3108 3109 3110 3111 3111 3112 3113 3114 3114 3114 3114 3115 3114 3114 3114 3114 3114 3113 3112 3112 3111 3111 3111 3110 3109 3108 3107 3105 3104 3103 3101 3100 3098 3096 3094 3092 3090 3087 3085 3082 3079 3076 3073 3070 3066
3055 3056 3056 3057 3058 3059 3059 3059 3060 3061 3062 3063 3064 3066 3069 3070 3072 3074 3077 3078 3080 3081 3082 3084 3085 3087 3088 3089 3090 3091 3092 3093 3094 3094 3095 3097 3099 3101 3103 3104 3106 3108 3108 3109 3110 3111 3112 3112 3113 3113 3113 3113 3113 3113 3113 3113 3113 3113 3112 3111 3111 3111 3111 3110 3108 3107 3106 3105 3104 3102 3101 3099 3098 3096 3094 3091 3089 3087 3085 3083 3080 3077 3073 3070 3066
3052 3053 3054 3054 3055 3056 3057 3057 3058 3058 3060 3061 3062 3064 3066 3068 3069 3072 3074 3076 3077 3078 3080 3082 3083 3084 3085 3087 3088 3089 3090 3091 3091 3092 3093 3095 3097 3099 3101 3103 3105 3106 3107 3108 3109 3110 3110 3111 3112 3112 3112 3112 3112 3112 3113 3113 3113 3112 3111 3111 3111 3111 3110 3109 3108 3107 3106 3105 3104 3102 3101 3099 3097 3095 3093 3091 3089 3087 3085 3083 3080 3077 3074 3071 3067
3050 3050 3051 3052 3052 3053 3054 3055 3056 3056 3058 3059 3060 3061 3063 3065 3067 3069 3071 3073 3074 3075 3077 3079 3080 3081 3082 3084 3085 3086 3087 3088 3089 3090 3092 3094 3096 3098 3100 3102 3103 3104 3105 3106 3107 3108 3109 3110 3110 3111 3111 3111 3111 3112 3112 3112 3112 3111 3110 3110 3110 3110 3110 3108 3107 3106 3105 3104 3103 3102 3100 3099 3097 3095 3093 3091 3089 3087 3085 3082 3080 3077 3074 3071 3068
3047 3048 3048 3049 3049 3050 3051 3052 3053 3054 3056 3057 3058 3059 3061 3063 3065 3067 3069 3070 3071 3072 3074 3075 3077 3078 3080 3081 3082 3084 3085 3086 3087 3089 3090 3092 3094 3096 3098 3100 3101 3102 3103 3104 3105 3106 3107 3108 3109 3110 3110 3110 3110 3111 3111 3111 3111 3110 3110 3109 3110 3109 3108 3107 3107 3106 3105 3104 3103 3101 3100 3099 3097 3095 3093 3091 3089 3087 3084 3082 3079 3077 3074 3070 3067
3045 3045 3046 3047 3047 3048 3049 3050 3051 3052 3053 3054 3055 3057 3058 3060 3062 3064 3066 3068 3069 3070 3070 3072 3073 3075 3077 3078 3080 3081 3083 3084 3085 3087 3088 3090 3092 3094 3096 3098 3099 3100 3102 3103 3104 3105 3106 3107 3108 3108 3109 3109 3109 3110 3110 3110 3109 3109 3109 3109 3109 3108 3107 3107 3106 3105 3104 3103 3102 3101 3099 3098 3096 3095 3092 3090 3088 3086 3083 3081 3078 3076 3073 3070 3067